Location: ??
(35.4627°N, 139.3695°E)
Time: 05:19:35
(UTC+00:00)

FENGYUN 3A - Pass Details

Date: 25 November 2020
Orbit: 823 x 837 km, 98.4° (Epoch: 20 January)

Event Time Altitude Azimuth Distance (km) Brightness Sun altitude
Rises 19:39:49 0° 6° (N) 3,385 6.8 -21.8°
Reaches altitude 10° 19:42:15 10° 1° (N) 2,446 6.0 -21.3°
Maximum altitude 19:47:26 48° 288° (WNW) 1,070 3.8 -20.3°
Drops below altitude 10° 19:52:34 10° 215° (SW) 2,423 5.9 -19.3°
Sets 19:54:58 0° 209° (SSW) 3,350 6.7 -18.8°
